Time,TemperatureF,DewpointF,PressureIn,WindDirection,WindDirectionDegrees,WindSpeedMPH,WindSpeedGustMPH,Humidity,HourlyPrecipIn,Conditions,Clouds,dailyrainin,SoftwareType,DateUTC
2013-01-22 00:00:00,19.4,3.0,-100.00,North,-999,0.0,0.0,48,0.00,,,-99.99,FreeWX-Wi 1.01,2013-01-22 05:00:00,
2013-01-22 00:10:00,19.4,3.0,-100.00,North,-999,0.0,0.0,48,0.00,,,-99.99,FreeWX-Wi 1.01,2013-01-22 05:10:00,
2013-01-22 00:20:00,19.4,3.0,-100.00,North,-999,0.0,0.0,48,0.00,,,-99.99,FreeWX-Wi 1.01,2013-01-22 05:20:00,
2013-01-22 00:30:00,19.4,3.0,-100.00,North,-999,0.0,0.0,48,0.00,,,-99.99,FreeWX-Wi 1.01,2013-01-22 05:30:00,
2013-01-22 00:40:00,19.2,2.8,-100.00,North,-999,0.0,0.0,48,0.00,,,-99.99,FreeWX-Wi 1.01,2013-01-22 05:40:00,
2013-01-22 00:50:00,19.2,2.8,-100.00,North,-999,0.0,0.0,48,0.00,,,-99.99,FreeWX-Wi 1.01,2013-01-22 05:50:00,
2013-01-22 01:00:00,19.2,3.2,-100.00,North,-999,0.0,0.0,49,0.00,,,-99.99,FreeWX-Wi 1.01,2013-01-22 06:00:00,
2013-01-22 01:10:00,19.2,3.2,-100.00,North,-999,0.0,0.0,49,0.00,,,-99.99,FreeWX-Wi 1.01,2013-01-22 06:10:00,
2013-01-22 01:20:00,19.2,3.2,-100.00,North,-999,0.0,0.0,49,0.00,,,-99.99,FreeWX-Wi 1.01,2013-01-22 06:20:00,
2013-01-22 01:30:00,19.2,3.2,-100.00,North,-999,0.0,0.0,49,0.00,,,-99.99,FreeWX-Wi 1.01,2013-01-22 06:30:00,
2013-01-22 01:40:00,19.2,3.2,-100.00,North,-999,0.0,0.0,49,0.00,,,-99.99,FreeWX-Wi 1.01,2013-01-22 06:40:00,
2013-01-22 01:50:00,19.2,3.7,-100.00,North,-999,0.0,0.0,50,0.00,,,-99.99,FreeWX-Wi 1.01,2013-01-22 06:50:00,
2013-01-22 02:00:00,19.2,3.7,-100.00,North,-999,0.0,0.0,50,0.00,,,-99.99,FreeWX-Wi 1.01,2013-01-22 07:00:00,
2013-01-22 02:10:00,19.2,3.7,-100.00,North,-999,0.0,0.0,50,0.00,,,-99.99,FreeWX-Wi 1.01,2013-01-22 07:10:00,
2013-01-22 02:20:00,19.2,3.7,-100.00,North,-999,0.0,0.0,50,0.00,,,-99.99,FreeWX-Wi 1.01,2013-01-22 07:20:00,
2013-01-22 02:30:00,19.0,3.6,-100.00,North,-999,0.0,0.0,50,0.00,,,-99.99,FreeWX-Wi 1.01,2013-01-22 07:30:00,
2013-01-22 02:40:00,18.9,3.4,-100.00,North,-999,0.0,0.0,50,0.00,,,-99.99,FreeWX-Wi 1.01,2013-01-22 07:40:00,
2013-01-22 02:50:00,18.5,3.0,-100.00,North,-999,0.0,0.0,50,0.00,,,-99.99,FreeWX-Wi 1.01,2013-01-22 07:50:00,
2013-01-22 03:00:00,18.1,2.3,-100.00,North,-999,0.0,0.0,49,0.00,,,-99.99,FreeWX-Wi 1.01,2013-01-22 08:00:00,
2013-01-22 03:10:00,17.8,1.9,-100.00,North,-999,0.0,0.0,49,0.00,,,-99.99,FreeWX-Wi 1.01,2013-01-22 08:10:00,
2013-01-22 03:20:00,17.4,1.6,-100.00,North,-999,0.0,0.0,49,0.00,,,-99.99,FreeWX-Wi 1.01,2013-01-22 08:20:00,
2013-01-22 03:30:00,16.9,1.0,-100.00,North,-999,0.0,0.0,49,0.00,,,-99.99,FreeWX-Wi 1.01,2013-01-22 08:30:00,
2013-01-22 03:40:00,16.3,0.5,-100.00,North,-999,0.0,0.0,49,0.00,,,-99.99,FreeWX-Wi 1.01,2013-01-22 08:40:00,
2013-01-22 03:50:00,16.0,0.3,-100.00,North,-999,0.0,0.0,49,0.00,,,-99.99,FreeWX-Wi 1.01,2013-01-22 08:50:00,
2013-01-22 04:00:00,15.6,0.3,-100.00,North,-999,0.0,0.0,50,0.00,,,-99.99,FreeWX-Wi 1.01,2013-01-22 09:00:00,
2013-01-22 04:10:00,15.3,0.0,-100.00,North,-999,0.0,0.0,50,0.00,,,-99.99,FreeWX-Wi 1.01,2013-01-22 09:10:00,
2013-01-22 04:20:00,14.9,-0.4,-100.00,North,-999,0.0,0.0,50,0.00,,,-99.99,FreeWX-Wi 1.01,2013-01-22 09:20:00,
2013-01-22 04:30:00,14.7,-0.6,-100.00,North,-999,0.0,0.0,50,0.00,,,-99.99,FreeWX-Wi 1.01,2013-01-22 09:30:00,
2013-01-22 04:40:00,14.5,-0.8,-100.00,North,-999,0.0,0.0,50,0.00,,,-99.99,FreeWX-Wi 1.01,2013-01-22 09:40:00,
2013-01-22 04:50:00,14.5,-0.8,-100.00,North,-999,0.0,0.0,50,0.00,,,-99.99,FreeWX-Wi 1.01,2013-01-22 09:50:00,
2013-01-22 05:00:00,14.7,-0.6,-100.00,North,-999,0.0,0.0,50,0.00,,,-99.99,FreeWX-Wi 1.01,2013-01-22 10:00:00,
2013-01-22 05:10:00,14.7,-0.6,-100.00,North,-999,0.0,0.0,50,0.00,,,-99.99,FreeWX-Wi 1.01,2013-01-22 10:10:00,
2013-01-22 05:20:00,14.9,-0.4,-100.00,North,-999,0.0,0.0,50,0.00,,,-99.99,FreeWX-Wi 1.01,2013-01-22 10:20:00,
2013-01-22 05:30:00,15.1,-0.2,-100.00,North,-999,0.0,0.0,50,0.00,,,-99.99,FreeWX-Wi 1.01,2013-01-22 10:30:00,
2013-01-22 05:40:00,15.1,-0.2,-100.00,North,-999,0.0,0.0,50,0.00,,,-99.99,FreeWX-Wi 1.01,2013-01-22 10:40:00,
2013-01-22 05:50:00,15.1,-0.2,-100.00,North,-999,0.0,0.0,50,0.00,,,-99.99,FreeWX-Wi 1.01,2013-01-22 10:50:00,
2013-01-22 06:00:00,15.1,0.3,-100.00,North,-999,0.0,0.0,51,0.00,,,-99.99,FreeWX-Wi 1.01,2013-01-22 11:00:00,
2013-01-22 06:10:00,14.7,0.0,-100.00,North,-999,0.0,0.0,51,0.00,,,-99.99,FreeWX-Wi 1.01,2013-01-22 11:10:00,
2013-01-22 06:20:00,14.5,-0.2,-100.00,North,-999,0.0,0.0,51,0.00,,,-99.99,FreeWX-Wi 1.01,2013-01-22 11:20:00,
2013-01-22 06:30:00,14.5,-0.2,-100.00,North,-999,0.0,0.0,51,0.00,,,-99.99,FreeWX-Wi 1.01,2013-01-22 11:30:00,
2013-01-22 06:40:00,14.5,-0.2,-100.00,North,-999,0.0,0.0,51,0.00,,,-99.99,FreeWX-Wi 1.01,2013-01-22 11:40:00,
2013-01-22 06:50:00,14.7,0.3,-100.00,North,-999,0.0,0.0,52,0.00,,,-99.99,FreeWX-Wi 1.01,2013-01-22 11:50:00,
2013-01-22 07:00:00,14.9,0.5,-100.00,North,-999,0.0,0.0,52,0.00,,,-99.99,FreeWX-Wi 1.01,2013-01-22 12:00:00,
2013-01-22 07:10:00,14.9,0.5,-100.00,North,-999,0.0,0.0,52,0.00,,,-99.99,FreeWX-Wi 1.01,2013-01-22 12:10:00,
2013-01-22 07:20:00,15.1,0.7,-100.00,North,-999,0.0,0.0,52,0.00,,,-99.99,FreeWX-Wi 1.01,2013-01-22 12:20:00,
2013-01-22 07:30:00,15.3,0.5,-100.00,North,-999,0.0,0.0,51,0.00,,,-99.99,FreeWX-Wi 1.01,2013-01-22 12:30:00,
2013-01-22 07:40:00,15.4,0.5,-100.00,North,-999,0.0,0.0,51,0.00,,,-99.99,FreeWX-Wi 1.01,2013-01-22 12:40:00,
2013-01-22 07:50:00,15.4,0.1,-100.00,North,-999,0.0,0.0,50,0.00,,,-99.99,FreeWX-Wi 1.01,2013-01-22 12:50:00,
2013-01-22 08:00:00,15.6,0.0,-100.00,North,-999,0.0,0.0,49,0.00,,,-99.99,FreeWX-Wi 1.01,2013-01-22 13:00:00,
2013-01-22 08:10:00,15.8,0.1,-100.00,North,-999,0.0,0.0,49,0.00,,,-99.99,FreeWX-Wi 1.01,2013-01-22 13:10:00,
2013-01-22 08:20:00,16.0,-0.6,-100.00,North,-999,0.0,0.0,47,0.00,,,-99.99,FreeWX-Wi 1.01,2013-01-22 13:20:00,
2013-01-22 08:30:00,16.2,-1.5,-100.00,North,-999,0.0,0.0,45,0.00,,,-99.99,FreeWX-Wi 1.01,2013-01-22 13:30:00,
2013-01-22 08:40:00,16.3,-2.7,-100.00,North,-999,0.0,0.0,42,0.00,,,-99.99,FreeWX-Wi 1.01,2013-01-22 13:40:00,
2013-01-22 08:50:00,16.5,-3.5,-100.00,North,-999,0.0,0.0,40,0.00,,,-99.99,FreeWX-Wi 1.01,2013-01-22 13:50:00,
2013-01-22 09:00:00,16.7,-5.1,-100.00,North,-999,0.0,0.0,37,0.00,,,-99.99,FreeWX-Wi 1.01,2013-01-22 14:00:00,
2013-01-22 09:10:00,16.9,-6.0,-100.00,North,-999,0.0,3.1,35,0.00,,,-99.99,FreeWX-Wi 1.01,2013-01-22 14:10:00,
2013-01-22 09:20:00,17.1,-5.8,-100.00,North,-999,0.0,0.0,35,0.00,,,-99.99,FreeWX-Wi 1.01,2013-01-22 14:20:00,
2013-01-22 09:30:00,17.4,-5.4,-100.00,North,-999,0.0,0.0,35,0.00,,,-99.99,FreeWX-Wi 1.01,2013-01-22 14:30:00,
2013-01-22 09:40:00,17.6,-5.3,-100.00,North,-999,0.0,0.0,35,0.00,,,-99.99,FreeWX-Wi 1.01,2013-01-22 14:40:00,
2013-01-22 09:50:00,17.8,-5.3,-100.00,North,-999,0.0,0.0,35,0.00,,,-99.99,FreeWX-Wi 1.01,2013-01-22 14:50:00,
2013-01-22 10:00:00,18.1,-4.9,-100.00,North,-999,0.0,0.0,35,0.00,,,-99.99,FreeWX-Wi 1.01,2013-01-22 15:00:00,
2013-01-22 10:10:00,18.3,-4.7,-100.00,North,-999,0.0,0.0,35,0.00,,,-99.99,FreeWX-Wi 1.01,2013-01-22 15:10:00,
2013-01-22 10:20:00,18.7,-6.2,-100.00,North,-999,0.0,0.0,32,0.00,,,-99.99,FreeWX-Wi 1.01,2013-01-22 15:20:00,
2013-01-22 10:30:00,18.9,-6.0,-100.00,North,-999,0.0,0.0,32,0.00,,,-99.99,FreeWX-Wi 1.01,2013-01-22 15:30:00,
2013-01-22 10:40:00,18.9,-6.0,-100.00,North,-999,0.0,0.0,32,0.00,,,-99.99,FreeWX-Wi 1.01,2013-01-22 15:40:00,
2013-01-22 10:50:00,19.2,-5.8,-100.00,North,-999,0.0,0.0,32,0.00,,,-99.99,FreeWX-Wi 1.01,2013-01-22 15:50:00,
2013-01-22 11:00:00,19.0,-6.0,-100.00,North,-999,0.0,0.0,32,0.00,,,-99.99,FreeWX-Wi 1.01,2013-01-22 16:00:00,
2013-01-22 11:10:00,19.2,-5.8,-100.00,North,-999,0.0,0.0,32,0.00,,,-99.99,FreeWX-Wi 1.01,2013-01-22 16:10:00,
2013-01-22 11:20:00,19.8,-5.3,-100.00,North,-999,0.0,0.0,32,0.00,,,-99.99,FreeWX-Wi 1.01,2013-01-22 16:20:00,
2013-01-22 11:30:00,20.1,-4.9,-100.00,North,-999,0.0,0.0,32,0.00,,,-99.99,FreeWX-Wi 1.01,2013-01-22 16:30:00,
2013-01-22 11:40:00,20.7,-4.5,-100.00,North,-999,0.0,0.0,32,0.00,,,-99.99,FreeWX-Wi 1.01,2013-01-22 16:40:00,
2013-01-22 11:50:00,20.5,-4.7,-100.00,North,-999,0.0,2.2,32,0.00,,,-99.99,FreeWX-Wi 1.01,2013-01-22 16:50:00,
2013-01-22 12:00:00,20.3,-4.7,-100.00,North,-999,0.0,0.0,32,0.00,,,-99.99,FreeWX-Wi 1.01,2013-01-22 17:00:00,
2013-01-22 12:10:00,20.5,-4.7,-100.00,North,-999,0.0,3.6,32,0.00,,,-99.99,FreeWX-Wi 1.01,2013-01-22 17:10:00,
2013-01-22 12:20:00,20.1,-4.9,-100.00,North,-999,0.0,2.7,32,0.00,,,-99.99,FreeWX-Wi 1.01,2013-01-22 17:20:00,
2013-01-22 12:30:00,20.1,-4.9,-100.00,North,-999,0.0,0.0,32,0.00,,,-99.99,FreeWX-Wi 1.01,2013-01-22 17:30:00,
2013-01-22 12:40:00,20.1,-4.9,-100.00,North,-999,0.0,2.2,32,0.00,,,-99.99,FreeWX-Wi 1.01,2013-01-22 17:40:00,
2013-01-22 12:50:00,19.6,-5.4,-100.00,North,-999,0.0,0.0,32,0.00,,,-99.99,FreeWX-Wi 1.01,2013-01-22 17:50:00,
2013-01-22 13:00:00,20.1,-4.9,-100.00,North,-999,0.0,0.0,32,0.00,,,-99.99,FreeWX-Wi 1.01,2013-01-22 18:00:00,
2013-01-22 13:10:00,20.8,-4.4,-100.00,North,-999,0.0,0.0,32,0.00,,,-99.99,FreeWX-Wi 1.01,2013-01-22 18:10:00,
2013-01-22 13:20:00,21.2,-4.0,-100.00,North,-999,0.0,3.6,32,0.00,,,-99.99,FreeWX-Wi 1.01,2013-01-22 18:20:00,
2013-01-22 13:30:00,21.2,-4.0,-100.00,North,-999,0.0,0.0,32,0.00,,,-99.99,FreeWX-Wi 1.01,2013-01-22 18:30:00,
2013-01-22 13:40:00,21.2,-4.0,-100.00,North,-999,0.0,3.1,32,0.00,,,-99.99,FreeWX-Wi 1.01,2013-01-22 18:40:00,
2013-01-22 13:50:00,21.0,-4.2,-100.00,North,-999,0.0,7.2,32,0.00,,,-99.99,FreeWX-Wi 1.01,2013-01-22 18:50:00,
2013-01-22 14:00:00,20.5,-4.7,-100.00,North,-999,0.0,0.0,32,0.00,,,-99.99,FreeWX-Wi 1.01,2013-01-22 19:00:00,
2013-01-22 14:10:00,20.1,-4.9,-100.00,North,-999,0.0,0.0,32,0.00,,,-99.99,FreeWX-Wi 1.01,2013-01-22 19:10:00,
2013-01-22 14:20:00,19.8,-5.3,-100.00,North,-999,0.0,4.0,32,0.00,,,-99.99,FreeWX-Wi 1.01,2013-01-22 19:20:00,
2013-01-22 14:30:00,19.8,-5.3,-100.00,North,-999,0.0,2.7,32,0.00,,,-99.99,FreeWX-Wi 1.01,2013-01-22 19:30:00,
2013-01-22 14:40:00,19.9,-5.1,-100.00,North,-999,0.0,0.0,32,0.00,,,-99.99,FreeWX-Wi 1.01,2013-01-22 19:40:00,
2013-01-22 14:50:00,19.9,-5.1,-100.00,North,-999,0.0,0.0,32,0.00,,,-99.99,FreeWX-Wi 1.01,2013-01-22 19:50:00,
2013-01-22 15:00:00,19.6,-5.4,-100.00,North,-999,0.0,0.0,32,0.00,,,-99.99,FreeWX-Wi 1.01,2013-01-22 20:00:00,
2013-01-22 15:10:00,19.2,-5.8,-100.00,North,-999,0.0,0.0,32,0.00,,,-99.99,FreeWX-Wi 1.01,2013-01-22 20:10:00,
2013-01-22 15:20:00,18.9,-6.0,-100.00,North,-999,0.0,0.0,32,0.00,,,-99.99,FreeWX-Wi 1.01,2013-01-22 20:20:00,
2013-01-22 15:30:00,18.7,-6.2,-100.00,North,-999,0.0,0.0,32,0.00,,,-99.99,FreeWX-Wi 1.01,2013-01-22 20:30:00,
2013-01-22 15:40:00,18.5,-6.3,-100.00,North,-999,0.0,0.0,32,0.00,,,-99.99,FreeWX-Wi 1.01,2013-01-22 20:40:00,
2013-01-22 15:50:00,18.1,-6.7,-100.00,North,-999,0.0,0.0,32,0.00,,,-99.99,FreeWX-Wi 1.01,2013-01-22 20:50:00,
2013-01-22 16:00:00,17.8,-7.1,-100.00,North,-999,0.0,0.0,32,0.00,,,-99.99,FreeWX-Wi 1.01,2013-01-22 21:00:00,
2013-01-22 16:10:00,17.6,-7.2,-100.00,North,-999,0.0,0.0,32,0.00,,,-99.99,FreeWX-Wi 1.01,2013-01-22 21:10:00,
2013-01-22 16:20:00,17.2,-7.4,-100.00,North,-999,0.0,0.0,32,0.00,,,-99.99,FreeWX-Wi 1.01,2013-01-22 21:20:00,
2013-01-22 16:30:00,16.7,-8.0,-100.00,North,-999,0.0,0.0,32,0.00,,,-99.99,FreeWX-Wi 1.01,2013-01-22 21:30:00,
2013-01-22 16:40:00,16.5,-8.1,-100.00,North,-999,0.0,0.0,32,0.00,,,-99.99,FreeWX-Wi 1.01,2013-01-22 21:40:00,
2013-01-22 16:50:00,16.3,-8.3,-100.00,North,-999,0.0,0.0,32,0.00,,,-99.99,FreeWX-Wi 1.01,2013-01-22 21:50:00,
2013-01-22 17:00:00,16.2,-8.5,-100.00,North,-999,0.0,0.0,32,0.00,,,-99.99,FreeWX-Wi 1.01,2013-01-22 22:00:00,
2013-01-22 17:10:00,15.8,-8.1,-100.00,North,-999,0.0,0.0,33,0.00,,,-99.99,FreeWX-Wi 1.01,2013-01-22 22:10:00,
2013-01-22 17:20:00,15.6,-8.3,-100.00,North,-999,0.0,0.0,33,0.00,,,-99.99,FreeWX-Wi 1.01,2013-01-22 22:20:00,
2013-01-22 17:30:00,15.3,-8.7,-100.00,North,-999,0.0,0.0,33,0.00,,,-99.99,FreeWX-Wi 1.01,2013-01-22 22:30:00,
2013-01-22 17:40:00,15.1,-8.9,-100.00,North,-999,0.0,0.0,33,0.00,,,-99.99,FreeWX-Wi 1.01,2013-01-22 22:40:00,
2013-01-22 17:50:00,14.7,-9.0,-100.00,North,-999,0.0,0.0,33,0.00,,,-99.99,FreeWX-Wi 1.01,2013-01-22 22:50:00,
2013-01-22 18:00:00,14.5,-9.2,-100.00,North,-999,0.0,0.0,33,0.00,,,-99.99,FreeWX-Wi 1.01,2013-01-22 23:00:00,
2013-01-22 18:10:00,14.4,-9.4,-100.00,North,-999,0.0,0.0,33,0.00,,,-99.99,FreeWX-Wi 1.01,2013-01-22 23:10:00,
2013-01-22 18:20:00,14.0,-9.8,-100.00,North,-999,0.0,0.0,33,0.00,,,-99.99,FreeWX-Wi 1.01,2013-01-22 23:20:00,
2013-01-22 18:30:00,13.8,-9.9,-100.00,North,-999,0.0,0.0,33,0.00,,,-99.99,FreeWX-Wi 1.01,2013-01-22 23:30:00,
2013-01-22 18:40:00,13.5,-10.3,-100.00,North,-999,0.0,0.0,33,0.00,,,-99.99,FreeWX-Wi 1.01,2013-01-22 23:40:00,
2013-01-22 18:50:00,13.3,-10.3,-100.00,North,-999,0.0,0.0,33,0.00,,,-99.99,FreeWX-Wi 1.01,2013-01-22 23:50:00,
2013-01-22 19:00:00,13.1,-10.5,-100.00,North,-999,0.0,0.0,33,0.00,,,-99.99,FreeWX-Wi 1.01,2013-01-23 00:00:00,
2013-01-22 19:10:00,13.1,-10.5,-100.00,North,-999,0.0,0.0,33,0.00,,,-99.99,FreeWX-Wi 1.01,2013-01-23 00:10:00,
2013-01-22 19:20:00,12.9,-10.7,-100.00,North,-999,0.0,0.0,33,0.00,,,-99.99,FreeWX-Wi 1.01,2013-01-23 00:20:00,
2013-01-22 19:30:00,12.6,-11.0,-100.00,North,-999,0.0,0.0,33,0.00,,,-99.99,FreeWX-Wi 1.01,2013-01-23 00:30:00,
2013-01-22 19:40:00,12.4,-11.2,-100.00,North,-999,0.0,0.0,33,0.00,,,-99.99,FreeWX-Wi 1.01,2013-01-23 00:40:00,
2013-01-22 19:50:00,12.2,-10.7,-100.00,North,-999,0.0,0.0,34,0.00,,,-99.99,FreeWX-Wi 1.01,2013-01-23 00:50:00,
2013-01-22 20:00:00,12.2,-10.7,-100.00,North,-999,0.0,0.0,34,0.00,,,-99.99,FreeWX-Wi 1.01,2013-01-23 01:00:00,
2013-01-22 20:10:00,12.0,-10.8,-100.00,North,-999,0.0,0.0,34,0.00,,,-99.99,FreeWX-Wi 1.01,2013-01-23 01:10:00,
2013-01-22 20:20:00,11.8,-11.0,-100.00,North,-999,0.0,0.0,34,0.00,,,-99.99,FreeWX-Wi 1.01,2013-01-23 01:20:00,
2013-01-22 20:30:00,11.8,-11.0,-100.00,North,-999,0.0,0.0,34,0.00,,,-99.99,FreeWX-Wi 1.01,2013-01-23 01:30:00,
2013-01-22 20:40:00,11.7,-11.2,-100.00,North,-999,0.0,0.0,34,0.00,,,-99.99,FreeWX-Wi 1.01,2013-01-23 01:40:00,
2013-01-22 20:50:00,11.5,-11.4,-100.00,North,-999,0.0,0.0,34,0.00,,,-99.99,FreeWX-Wi 1.01,2013-01-23 01:50:00,
2013-01-22 21:00:00,11.3,-11.6,-100.00,North,-999,0.0,0.0,34,0.00,,,-99.99,FreeWX-Wi 1.01,2013-01-23 02:00:00,
2013-01-22 21:10:00,10.9,-11.9,-100.00,North,-999,0.0,0.0,34,0.00,,,-99.99,FreeWX-Wi 1.01,2013-01-23 02:10:00,
2013-01-22 21:30:00,10.8,-12.1,-100.00,North,-999,0.0,0.0,34,0.00,,,-99.99,FreeWX-Wi 1.01,2013-01-23 02:30:00,
2013-01-22 21:40:00,10.6,-12.1,-100.00,North,-999,0.0,0.0,34,0.00,,,-99.99,FreeWX-Wi 1.01,2013-01-23 02:40:00,
2013-01-22 21:50:00,10.4,-12.3,-100.00,North,-999,0.0,0.0,34,0.00,,,-99.99,FreeWX-Wi 1.01,2013-01-23 02:50:00,
2013-01-22 22:00:00,10.2,-12.5,-100.00,North,-999,0.0,0.0,34,0.00,,,-99.99,FreeWX-Wi 1.01,2013-01-23 03:00:00,
2013-01-22 22:10:00,10.2,-12.5,-100.00,North,-999,0.0,0.0,34,0.00,,,-99.99,FreeWX-Wi 1.01,2013-01-23 03:10:00,
2013-01-22 22:20:00,10.0,-12.6,-100.00,North,-999,0.0,0.0,34,0.00,,,-99.99,FreeWX-Wi 1.01,2013-01-23 03:20:00,
2013-01-22 22:30:00,10.0,-12.6,-100.00,North,-999,0.0,0.0,34,0.00,,,-99.99,FreeWX-Wi 1.01,2013-01-23 03:30:00,
2013-01-22 22:40:00,9.9,-12.8,-100.00,North,-999,0.0,0.0,34,0.00,,,-99.99,FreeWX-Wi 1.01,2013-01-23 03:40:00,
2013-01-22 22:50:00,9.7,-13.0,-100.00,North,-999,0.0,0.0,34,0.00,,,-99.99,FreeWX-Wi 1.01,2013-01-23 03:50:00,
2013-01-22 23:00:00,9.3,-13.4,-100.00,North,-999,0.0,0.0,34,0.00,,,-99.99,FreeWX-Wi 1.01,2013-01-23 04:00:00,
2013-01-22 23:10:00,9.1,-13.5,-100.00,North,-999,0.0,0.0,34,0.00,,,-99.99,FreeWX-Wi 1.01,2013-01-23 04:10:00,
2013-01-22 23:20:00,9.1,-13.5,-100.00,North,-999,0.0,0.0,34,0.00,,,-99.99,FreeWX-Wi 1.01,2013-01-23 04:20:00,
2013-01-22 23:30:00,9.0,-13.7,-100.00,North,-999,0.0,0.0,34,0.00,,,-99.99,FreeWX-Wi 1.01,2013-01-23 04:30:00,
2013-01-22 23:40:00,8.6,-13.9,-100.00,North,-999,0.0,0.0,34,0.00,,,-99.99,FreeWX-Wi 1.01,2013-01-23 04:40:00,
2013-01-22 23:50:00,8.4,-14.1,-100.00,North,-999,0.0,0.0,34,0.00,,,-99.99,FreeWX-Wi 1.01,2013-01-23 04:50:00,